Location: Ostrava
(49.8330°N, 18.2830°E)
Time: 03:49:10
(UTC+01:00)

Daily predictions for brighter satellites

Satellite Brightness Start Highest point End
(mag) Time Altitude Azimuth Time Altitude Azimuth Time Altitude Azimuth
SL-16 R/B 4.5 03:29:15 16° NNE 03:29:36 16° NNE 03:33:06 10° ENE
Cosmos 2322 Rocket 4.4 03:37:47 17° NNE 03:38:30 17° NE 03:42:12 10° ENE
ATLAS 5 CENTAUR R/B 4.4 03:41:58 15° NNE 03:41:58 15° NNE 03:43:32 10° NE
USA 267 3.7 03:35:08 10° ENE 03:40:25 57° E 03:40:25 57° E
SJ 16-02 4.0 03:56:31 15° SE 03:56:31 15° SE 03:57:18 10° SE
Lacrosse 5 rocket 3.8 04:02:33 21° SE 04:02:33 21° SE 04:04:02 10° SE
Cosmos 1697 Rocket 3.5 04:03:41 46° ESE 04:03:41 46° ESE 04:07:40 10° SE
Cosmos 2082 Rocket 3.5 04:01:07 22° SSE 04:04:06 37° ESE 04:09:17 10° NE
Cosmos 1833 Rocket 3.6 04:15:01 28° SSE 04:17:32 46° ESE 04:22:54 10° NE
USA 234 3.4 04:12:42 10° SE 04:18:33 59° SSW 04:18:33 59° SSW
COSMO-SKYMED 1 3.8 04:18:57 10° SE 04:22:19 41° E 04:22:19 41° E
CZ-4B R/B 3.4 04:17:27 10° NNE 04:22:22 67° NE 04:22:22 67° NE
IDEFIX/ARIANE 42P 4.5 04:20:17 10° NE 04:24:45 28° E 04:29:12 10° SSE
Meteor 1-13 Rocket 4.5 04:33:04 30° N 04:36:05 73° ENE 04:42:01 10° SSE
Cosmos 2360 Rocket 4.3 04:34:57 13° N 04:38:05 20° NE 04:42:11 10° E
Cosmos 1980 Rocket 2.2 04:39:47 59° N 04:40:52 79° ENE 04:46:33 10° SSE
Cosmos 1125 Rocket 4.5 04:49:15 33° SSW 04:49:15 33° SSW 04:52:16 10° S
SeaSat 1 2.4 04:43:39 10° NNE 04:48:16 72° NNW 04:48:16 72° NNW
Meteor 2-4 Rocket 3.7 04:48:00 26° N 04:51:10 74° ENE 04:56:38 10° SSE
ERBS 4.4 05:00:59 21° NNE 05:00:59 21° NNE 05:02:25 10° NE
Cosmos 841 Rocket 4.4 05:03:18 33° NNW 05:03:18 33° NNW 05:06:43 10° NNE
Cosmos 1536 3.6 05:00:25 10° S 05:04:21 51° E 05:08:18 10° NNE
Cosmos 44 Rocket 3.5 05:02:08 26° SSW 05:04:44 65° SE 05:09:26 10° NE
Meteor 1-19 Rocket 4.2 05:03:04 35° NNW 05:05:34 64° W 05:11:23 10° S
Thor Agena Rocket 4.4 05:01:10 10° SE 05:05:59 47° ENE 05:10:51 10° N
SKYMED 2 3.5 05:06:50 10° S 05:10:56 62° WSW 05:10:56 62° WSW
Cosmos 2360 4.1 05:10:36 42° NW 05:12:33 69° WSW 05:18:13 10° SSE
IRS-1C Rocket 4.2 05:09:26 10° N 05:14:29 47° WNW 05:14:49 47° WNW
SL-16 R/B 2.7 05:11:08 20° NNW 05:15:02 56° NE 05:20:36 10° SE
Cosmos 2279 Rocket 4.1 05:14:45 25° NNW 05:18:05 48° W 05:24:00 10° SSW
Cosmos 540 Rocket 3.6 05:18:41 44° W 05:19:42 51° WNW 05:24:46 10° NNE
Cosmos 2322 Rocket 2.6 05:19:36 19° NNW 05:23:45 62° ENE 05:29:22 10° SE
USA 267 3.4 05:18:15 10° ENE 05:24:39 59° NNW 05:27:46 31° W
CZ-2C R/B 2.7 05:20:52 10° NNE 05:25:49 67° ESE 05:30:35 10° S
ATLAS 5 CENTAUR R/B 3.8 05:23:31 17° NNW 05:25:51 22° NNE 05:30:24 10° ENE
Cosmos 1515 4.1 05:25:48 16° N 05:28:43 64° ENE 05:32:31 10° SSE
RESURS DK-1 2.5 05:28:34 48° W 05:28:54 50° WSW 05:32:54 10° S
SJ 16-02 3.2 05:33:35 16° SW 05:33:35 16° SW 05:34:50 10° SSW
Cosmos 2151 Rocket 3.4 05:27:28 10° SSW 05:31:50 68° WNW 05:36:15 10° N
CZ-4 R/B 4.1 05:30:51 10° NE 05:34:10 23° E 05:37:29 10° SE
Meteor 1-5 Rocket 4.2 05:29:10 10° S 05:34:39 81° E 05:40:01 10° NNE
COSMOS 2487 3.5 05:38:08 30° NNW 05:38:08 30° NNW 05:40:21 10° N
SJ-12 4.4 05:33:13 10° NNE 05:37:16 60° E 05:41:17 10° S
Lacrosse 5 rocket 3.1 05:38:16 20° SW 05:38:16 20° SW 05:41:27 10° S
Okean-O 2.7 05:35:40 10° N 05:40:01 54° WNW 05:44:21 10° SSW
Okean 2 Rocket 4.0 05:41:37 29° NW 05:41:37 29° NW 05:44:46 10° N
Celestis-02/Orion 38 4.5 05:37:15 10° SSE 05:42:19 86° WSW 05:46:16 17° NNW
MSX 4.0 05:36:35 10° NNE 05:42:23 77° ESE 05:48:07 10° S
Cosmos 1484 Rocket 4.2 05:39:30 10° NNE 05:43:15 40° E 05:46:55 10° SSE
Cosmos 1697 Rocket 3.8 05:45:28 23° W 05:45:32 23° WSW 05:49:49 10° SSW
Cosmos 2082 Rocket 2.5 05:43:08 13° WSW 05:48:06 46° NW 05:53:36 10° NNE
Okean 2 3.3 05:45:02 10° N 05:49:09 90° W 05:53:15 10° S
Cosmos 44 3.1 05:47:11 23° WSW 05:49:39 52° NW 05:54:01 10° NNE
Meteor 1-23 Rocket 4.2 05:44:30 10° NNW 05:50:00 58° W 05:55:25 10° S
Cosmos 1536 Rocket 4.1 05:48:54 28° NW 05:50:17 35° W 05:54:15 10° SSW
Cosmos 1300 Rocket 3.4 05:46:08 10° SSW 05:50:25 69° WNW 05:54:46 10° N
NOAA 6 4.3 05:51:04 10° N 05:55:53 43° WNW 06:00:42 10° SW
Cosmos 292 Rocket 4.4 05:55:01 17° WSW 05:58:02 33° NW 06:02:21 10° N
COSMO-SKYMED 1 3.8 05:56:05 10° SW 05:59:28 22° W 05:59:31 22° W
Meteor 2-11 Rocket 4.4 05:54:45 10° NNW 06:00:54 79° W 06:06:58 10° S
PAYLOAD A 4.3 05:55:43 10° N 06:00:58 50° WNW 06:06:10 10° SW
Cosmos 1833 Rocket 3.2 05:56:52 12° WSW 06:01:37 37° NW 06:06:50 10° NNE
Cosmos 2333 Rocket 4.1 05:57:51 10° NNW 06:02:17 22° NE 06:06:42 10° E
Cosmos 1025 Rocket 2.9 05:58:41 10° NNW 06:02:57 66° W 06:07:10 10° S
CZ-4B R/B 4.4 05:58:59 10° N 06:03:03 21° NW 06:04:14 20° WNW
IDEFIX/ARIANE 42P 2.7 05:59:35 10° N 06:04:34 48° WNW 06:09:33 10° SW
COSMOS 2428 4.2 06:00:17 10° NNW 06:05:25 32° NE 06:10:31 10° ESE
Cosmos 1437 Rocket 3.1 06:03:03 10° SW 06:06:50 42° WNW 06:10:35 10° N
COSMOS 2441 4.3 06:04:18 10° N 06:09:09 68° WNW 06:13:55 10° SSW
Cosmos 1066 Rocket 4.1 06:08:03 10° NNW 06:13:26 89° W 06:18:49 10° S
Nadezhda 4 Rocket 4.2 06:09:44 10° SW 06:15:35 45° WNW 06:21:28 10° N
Okean 1 Rocket 3.1 06:13:29 10° SSW 06:17:47 57° WNW 06:22:10 10° N
Cosmos 1975 3.2 06:14:30 10° S 06:18:26 66° E 06:22:25 10° NNE
Ariane Rocket 3.3 06:14:09 10° NNE 06:19:14 74° ESE 06:24:18 10° S
Cosmos 2360 Rocket 2.4 06:17:22 10° NNW 06:23:05 75° ENE 06:28:46 10° SE
Cosmos 192 4.3 06:18:26 10° SSW 06:23:21 86° WNW 06:28:18 10° NNE
Timation 2 Rocket 4.2 06:16:43 10° SW 06:23:36 73° NW 06:30:30 10° NNE
Cosmos 1980 Rocket 3.5 06:21:36 15° WNW 06:24:12 20° W 06:28:09 10° SW
SeaSat 1 3.8 06:22:04 10° N 06:25:29 19° NW 06:28:04 13° WNW
Cosmos 1271 Rocket 4.3 06:26:52 10° SSE 06:30:23 37° E 06:33:53 10° NNE
S3M 4.0 06:26:53 10° N 06:33:04 89° ENE 06:39:19 10° S
Cosmos 1500 3.4 06:30:05 10° SSW 06:33:50 47° WNW 06:37:35 10° N
YAOGAN 1 3.2 06:30:16 10° NNE 06:34:35 62° ESE 06:38:52 10° S
Cosmos 1892 Rocket 3.5 06:30:20 10° NNW 06:34:46 76° W 06:39:08 10° S
Cosmos 2219 Rocket 3.5 06:30:02 10° NNW 06:35:12 34° NE 06:40:20 10° ESE
ERBS 3.8 06:34:13 13° NW 06:36:34 23° N 06:39:21 10° ENE
IRAS Rocket 4.2 06:31:15 10° NNE 06:36:48 85° WNW 06:42:21 10° SSW
Cosmos 389 Rocket 3.3 06:34:58 10° S 06:38:32 57° E 06:42:07 10° NNE
CZ-4C R/B 2.2 06:34:23 10° SW 06:39:44 84° NW 06:46:02 10° NE
Cosmos 1536 4.3 06:38:23 10° WSW 06:41:07 17° WNW 06:43:52 10° NNW
Cosmos 1680 Rocket 3.8 06:36:04 10° SSW 06:41:14 72° ESE 06:46:28 10° NNE
Cosmos 773 Rocket 4.1 06:37:55 10° SW 06:42:56 53° WNW 06:48:00 10° NNE
Cosmos 2237 Rocket 3.9 06:40:16 10° NNW 06:44:59 26° NE 06:49:40 10° E
Thor Agena Rocket 4.4 06:41:12 10° SSW 06:45:29 28° W 06:49:50 10° NW
Cosmos 44 Rocket 4.1 06:42:32 10° W 06:46:38 29° NW 06:50:48 10° NNE
Cosmos 1655 Rocket 4.0 06:43:04 10° SSW 06:49:17 76° W 06:55:36 10° N
deb Kosmos-1763 4.3 06:49:20 10° SW 06:52:59 49° WNW 06:56:39 10° NNE
Cosmos 1371 Rocket 4.0 06:47:44 10° NNW 06:53:01 84° WSW 06:58:12 10° SSE
Helios 1B rocket 4.2 06:49:38 10° SE 06:53:13 30° ENE 06:56:49 10° N
CSL-04 Debris 4.2 06:51:20 10° N 06:56:41 59° WNW 07:02:01 10° SSW
SL-16 R/B 3.2 06:54:02 10° NW 06:58:50 29° WSW 07:03:35 10° SSW
GEOS 3 Rocket 3.9 06:55:48 10° NE 07:01:02 52° NW 07:06:14 10° WSW
